Location: Bottenau
(48.5138°N, 8.0462°E)
Time: 20:17:25
(UTC+00:00)

Cosmos 1818 - Pass Details

Date: 18 April 2021
Orbit: 772 x 802 km, 65.0° (Epoch: 18 May)

Event Time Altitude Azimuth Distance (km) Brightness Sun altitude
Rises 20:47:33 0° 232° (SW) 3,276 6.8 -20.7°
Reaches altitude 10° 20:50:00 10° 237° (WSW) 2,355 6.1 -21.0°
Maximum altitude 20:55:19 54° 315° (NW) 964 4.3 -21.6°
Drops below altitude 10° 21:00:42 10° 33° (NNE) 2,383 6.3 -22.2°
Sets 21:03:12 0° 38° (NE) 3,319 7.0 -22.4°
